Flag Weather past 2 weeks in Shymkent, Kazakhstan

Now
21 °F

Ice fog.


Feels Like: 21 °F
Forecast: 27 / 31 °F
Wind: 1 mph from North

Location: Shymkent Airport

Current Time: Nov 26, 2014 at 11:40:28 PM

Latest Report: Nov 26, 2014 at 11:00 PM


Visibility: 0 mi

Pressure: 30.09 "Hg

Humidity: 86%

Dew point: 18 °F

Location of ShymkentLocation

Historic Weather in Shymkent — Graph

°F

Shymkent temperature yesterday

Maximum temperature yesterday: 41 °F (at 12:00 AM)
Minimum temperature yesterday: 18 °F (at 6:00 PM)
Average temperature yesterday: 27 °F

Past Weeks' High & Low Weather Summary

 TemperatureHumidityPressure
High61 °F (Nov 18, 1:00 AM)93% (Nov 13, 4:00 AM)30.57 "Hg (Nov 13, 4:00 AM)
Low14 °F (Nov 26, 9:30 AM)25% (Nov 18, 1:00 AM)29.74 "Hg (Nov 24, 1:30 AM)
Average38 °F76%30.28 "Hg
* Reported Nov 11 10:00 PM — Nov 26 10:30 PM, Shymkent, Weather by CustomWeather, © 2014

Note: Actual official high and low records may vary slightly from our data, if they occured in-between our weather recording intervals... More about our weather records

Advertising

Shymkent weather history for previous 24 hours

 ConditionsComfort  
Time TempWeatherWind HumidityBarometerVisibility
10:30 PM
Nov 26
19 °FIce fog.No wind86%30.07 "Hg0 mi
10:00 PM19 °FIce fog.1 mph86%30.09 "Hg0 mi
9:30 PM18 °FIce fog.1 mph86%30.09 "Hg0 mi
9:00 PM19 °FIce fog.1 mph93%30.09 "Hg1 mi
8:30 PM21 °FIce fog.1 mph86%30.09 "Hg1 mi
8:00 PM21 °FIce fog.No wind86%30.09 "Hg1 mi
7:30 PM21 °FIce fog.1 mph93%30.12 "Hg2 mi
7:00 PM23 °FIce fog.No wind86%30.12 "Hg2 mi
6:30 PM23 °FIce fog.No wind86%30.15 "Hg3 mi
6:00 PM23 °FIce fog.1 mph86%30.15 "Hg3 mi
5:30 PM27 °FIce fog.1 mph86%30.15 "Hg3 mi
5:00 PM28 °FOvercast.3 mph86%30.18 "Hg5 mi
4:30 PM30 °FOvercast.1 mph86%30.18 "Hg5 mi
4:00 PM28 °FOvercast.3 mph86%30.18 "Hg5 mi
3:30 PM28 °FIce fog.3 mph93%30.21 "Hg3 mi
3:00 PM28 °FIce fog.6 mph86%30.21 "Hg2 mi
2:30 PM28 °FIce fog.1 mph86%30.21 "Hg2 mi
2:00 PM28 °FIce fog.1 mph86%30.24 "Hg2 mi
1:30 PM27 °FIce fog.No wind86%30.24 "Hg1 mi
1:00 PM25 °FIce fog.No wind93%30.24 "Hg1 mi
12:30 PM25 °FIce fog.No wind93%30.27 "Hg1 mi
12:00 PM21 °FIce fog.No wind93%30.30 "Hg1 mi
11:30 AM21 °FIce fog.No wind93%30.30 "Hg1 mi
11:00 AM19 °FIce fog.No wind86%30.33 "Hg1 mi
10:30 AM16 °FIce fog.No wind86%30.33 "Hg1 mi
10:00 AM16 °FIce fog.No wind86%30.33 "Hg1 mi
9:30 AM14 °FIce fog.No wind85%30.33 "Hg0 mi
9:00 AM16 °FIce fog.No wind86%30.33 "Hg0 mi
8:30 AM16 °FIce fog.No wind86%30.36 "Hg0 mi
8:00 AM16 °FIce fog.No wind86%30.36 "Hg0 mi
7:30 AM16 °FIce fog.No wind86%30.39 "Hg0 mi
7:00 AM16 °FIce fog.No wind86%30.39 "Hg0 mi
6:30 AM16 °FIce fog.No wind86%30.39 "Hg0 mi
6:00 AM16 °FIce fog.No wind86%30.42 "Hg0 mi
5:30 AM16 °FIce fog.No wind86%30.42 "Hg0 mi
5:00 AM16 °FIce fog.No wind86%30.42 "Hg0 mi
4:30 AM18 °FIce fog.No wind86%30.42 "Hg0 mi
4:00 AM18 °FIce fog.No wind86%30.45 "Hg0 mi
3:30 AM19 °FIce fog.No wind86%30.45 "Hg0 mi
2:30 AM19 °FIce fog.No wind86%30.45 "Hg1 mi
2:00 AM19 °FIce fog.No wind86%30.45 "Hg1 mi
1:30 AM19 °FIce fog.No wind86%30.48 "Hg1 mi
1:00 AM19 °FIce fog.No wind86%30.48 "Hg1 mi
12:30 AM18 °FIce fog.1 mph93%30.51 "Hg1 mi
12:00 AM19 °FIce fog.1 mph86%30.51 "Hg1 mi
11:30 PM
Nov 25
21 °FIce fog.1 mph86%30.51 "Hg1 mi
11:00 PM21 °FIce fog.1 mph86%30.54 "Hg1 mi
Weather by CustomWeather, © 2014

See weather overviewHow to use our weather pages